Regional Weather Roundup
Issued by NWS

Home | Current Version | Previous Version | Text Only | Print | Product List | Glossary Off
Versions: 1 2 3 4 5 6 7 8 9 10 11 12 13 14 15 16 17 18 19 20 21 22 23 24 25 26 27 28 29 30 31 32 33 34 35 36 37 38 39 40 41 42 43 44 45 46 47 48 49 50

135
ASUS45 KBOU 221807
RWRCO

WEATHER ROUNDUP FOR COLORADO
NATIONAL WEATHER SERVICE DENVER/BOULDER CO
1200 PM MDT SAT JUL 22 2017

NOTE: "FAIR" INDICATES FEW OR NO CLOUDS BELOW 12000 FEET WITH NO
SIGNIFICANT WEATHER AND/OR OBSTRUCTIONS TO VISIBILITY.

COZ001>005-013-030-031-221900-
...NORTHWEST COLORADO...

CITY           SKY/WX    TMP DP  RH WIND       PRES   REMARKS
CRAIG          FAIR      77  49  37 CALM      30.30F
HAYDEN         FAIR      73  48  40 NW5       30.32F
MEEKER         FAIR      77  51  40 S6        30.30F
RABBIT EARS PA FAIR      63  41  45 S3        30.62S
STEAMBOAT SPGS FAIR      73  51  45 S3        30.34F
WALDEN         FAIR      70  48  46 NW5       30.44F
$$

COZ006>008-011-221900-
...WEST CENTRAL VALLEYS...

CITY           SKY/WX    TMP DP  RH WIND       PRES   REMARKS
GRAND JUNCTION FAIR      79  60  52 S5        30.19F
MONTROSE       FAIR      74  55  51 VRB6      30.27F
EAGLE          SUNNY     72  55  56 CALM      30.35F
RIFLE          FAIR      77  57  50 NW5       30.24F
DELTA          FAIR      81  56  42 S3        30.23F
NUCLA          NOT AVBL
$$

COZ017>023-064>068-221900-
...SOUTHWEST COLORADO...

CITY           SKY/WX    TMP DP  RH WIND       PRES   REMARKS
DURANGO        FAIR      78  53  41 VRB5      30.27F
CORTEZ         PTSUNNY   77  56  48 MISG      30.23S
PAGOSA SPRINGS FAIR      75  42  30 SW5       30.35F THUNDER
TELLURIDE      PTSUNNY   64  52  65 SE3       30.50R THUNDER
WOLF CREEK PAS TSTM      52  43  71 E12       30.71F
$$

COZ009-010-012-014-032>034-037-058>063-221900-
...CENTRAL COLORADO...

CITY           SKY/WX    TMP DP  RH WIND       PRES   REMARKS
ASPEN          FAIR      70  52  52 N6        30.39F
BUENA VISTA    CLOUDY    69  48  47 SE10      30.41F
COPPER MTN     FAIR      61  37  41 N3        30.72F
BERTHOUD PASS  CLOUDY    48  34  57 CALM      30.75S
COTTONWOOD PAS FAIR      68  41  37 SE6       30.56R
GUNNISON       FAIR      66  53  63 SW5       30.39S
KREMMLING      FAIR      79  46  31 SW3       30.39F
LEADVILLE      CLOUDY    63  40  42 N7G17     30.50S
SALIDA         PTSUNNY   70  51  50 SE5       30.46F
SUNLIGHT       FAIR      61  43  51 NE6       30.66R
WILKERSON PASS FAIR      59  41  51 E7        30.68S
$$

COZ069>075-221900-
...SAN LUIS VALLEY/SANGRE DE CRISTO MOUNTAINS...

CITY           SKY/WX    TMP DP  RH WIND       PRES   REMARKS
ALAMOSA        FAIR      78  47  33 VRB7      30.33F
DEL NORTE      PTSUNNY   72  47  40 E7        30.38F
LA VETA PASS   NOT AVBL
SAGUACHE         N/A    N/A N/A N/A MISG        N/A
$$

COZ035-036-038>040-221900-
...NORTHERN COLORADO FRONT RANGE...

CITY           SKY/WX    TMP DP  RH WIND       PRES   REMARKS
DENVER INTL AP FAIR      83  49  30 NE6       30.21F
DMNS CITY PARK   N/A     82  49  31 N8G18     30.20F
AURORA         MOSUNNY   80  51  36 NE7       30.24S
FRONT RANGE AP FAIR      81  48  32 N6        30.23S
ERIE MUNI ARPT FAIR      84  48  28 E5        30.19F
BOULDER MUN AP FAIR      84  50  30 E6        30.20F
CENTENNIAL     FAIR      80  51  36 N8        30.25S
BROOMFIELD     PTSUNNY   82  48  30 N8        30.23F
FORT COLLINS   FAIR      84  56  38 SE10      30.18F
LONGMONT       FAIR      86  51  30 CALM      30.21S HAZE
$$

COZ041-046-047-076>085-087-088-221900-
...PIKES PEAK/PALMER DIVIDE AND SOUTHERN FOOTHILLS...

CITY           SKY/WX    TMP DP  RH WIND       PRES   REMARKS
COLO. SPRINGS  PTSUNNY   78  54  43 CALM      30.29S
A. F. ACADEMY  FAIR      78  46  32 N12       30.29F
SCHRIEVER AFB  PTSUNNY   72  55  56 N6        30.29S
CHEYENNE MTN   PTSUNNY   72  47  40 N6        30.29R
ELLICOTT       FAIR     N/A N/A N/A N3        30.27S
FALCON           N/A     72  53  51 CALM      30.34S
FORT CARSON    CLOUDY    73  56  55 CALM      30.26R
LIMON          PTSUNNY   78  57  48 NE8       30.23F
MONUMENT HILL  FAIR      72  48  43 CALM      30.35S
CANON CITY     MOSUNNY   75  61  60 MISG      30.22F
WALSENBURG     MOCLDY    79  57  47 N12       30.26R
TRINIDAD       FAIR      84  47  27 VRB7      30.21F
$$

COZ042>045-048>051-090-091-221900-
...NORTHEAST COLORADO...

CITY           SKY/WX    TMP DP  RH WIND       PRES   REMARKS
GREELEY ARPT   FAIR      83  57  41 SE9       30.17F
AKRON          FAIR      79  55  43 CALM      30.19S
BURLINGTON     FAIR      82  57  42 N9        30.14S
WRAY           NOT AVBL
YUMA           FAIR      77  52  41 NE5       30.15S
STERLING       FAIR      77  63  61 SE5       30.14S
HOLYOKE        FAIR      79  59  50 N6        30.14S
FORT MORGAN    FAIR      82  54  38 SE7       30.19S
$$

COZ086-089-092>099-221900-
...SOUTHEAST COLORADO...

CITY           SKY/WX    TMP DP  RH WIND       PRES   REMARKS
PUEBLO         FAIR      85  55  35 VRB5      30.16F
LA JUNTA       FAIR      88  56  33 NE10      30.13S
LAMAR          FAIR      90  58  33 NE15      30.08R
SPRINGFIELD      N/A     87  56  34 N10       30.11S
$$




USA.gov is the U.S. government's official web portal to all federal, state and local government web resources and services.